Location: Aldenham
(51.6667°N, 0.3500°W)
Time: 16:26:51
(UTC+00:00)

Vanguard 2 Rocket - Pass Details

Date: 25 February 2026
Orbit: 553 x 3286 km, 32.9° (Epoch: 11 March)

Event Time Altitude Azimuth Distance (km) Brightness Sun altitude
Rises 10:16:13 0° 224° (SW) 6,891 11.6 24.2°
Reaches altitude 10° 10:21:17 10° 216° (SW) 6,072 11.5 24.6°
Maximum altitude 10:37:40 35° 161° (SSE) 4,426 12.7 25.9°
Drops below altitude 10° 10:52:22 10° 105° (ESE) 5,481 11.5 26.8°
Sets 10:56:35 0° 97° (E) 6,175 11.5 27.1°
